Madison, MN

1:01 PM CST on December 15, 2019 (GMT -0600)
Madison-Lac Qui Parle County

Weather History for KDXX - August, 2019

Change the Weather History Date:

Sunday, August 4, 2019

  Actual Average (WUND) Record (WUND)
Temperature  
Mean Temperature 76 °F -  
Max Temperature 87 °F - - (-1)
Min Temperature 66 °F - - (-1)
Cooling Degree Days 12    
Growing Degree Days 26 (Base 50)    
Moisture  
Dew Point 69 °F    
Average Humidity 78    
Maximum Humidity 94    
Minimum Humidity 55    
Precipitation  
Precipitation 0.00 in - - ()
Sea Level Pressure  
Sea Level Pressure 30.00 in    
Wind  
Wind Speed 3 mph (SSW)    
Max Wind Speed 10 mph    
Max Gust Speed -    
Visibility 10 miles    
Events      
Averages and records for this station are not official NWS values.
T = Trace of Precipitation, MM = Missing Value Source: NWS Daily Summary

Daily Weather History Graph

Daily Weather History Graph

Search for Another Location

Airport or City:

Astronomy

Aug. 04, 2019 Rise Set
Actual Time 6:13 AM CDT 8:47 PM CDT
Civil Twilight 5:39 AM CDT 9:20 PM CDT
Nautical Twilight 4:58 AM CDT 10:02 PM CDT
Astronomical Twilight 4:10 AM CDT 10:50 PM CDT
Moon 10:29 AM CDT (8/4) 11:16 PM CDT (8/4)
Length of Visible Light 15h 40m
Length of Day
14h 34m
Waxing Crescent, 18% of the Moon is Illuminated
Aug 4
Waxing Crescent
Aug 7
First Quarter
Aug 15
Full
Aug 23
Last Quarter
Aug 30
New

Hourly Weather History & Observations

Time (CDT) Temp. Heat Index Dew Point Humidity Pressure Visibility Wind Dir Wind Speed Gust Speed Precip Events Conditions
12:15 AM 69.8 °F - 66.2 °F 88% 30.06 in 10.0 mi Calm Calm - N/A   Clear
12:19 AM 69.8 °F - 66.2 °F 88% 30.06 in 10.0 mi South 3.5 mph - N/A   Clear
12:38 AM 69.8 °F - 64.4 °F 83% 30.05 in 10.0 mi South 4.6 mph - N/A   Clear
12:55 AM 68.0 °F - 64.4 °F 88% 30.05 in 10.0 mi South 3.5 mph - N/A   Clear
1:15 AM 68.0 °F - 64.4 °F 88% 30.05 in 10.0 mi Calm Calm - N/A   Clear
1:16 AM 68.0 °F - 64.4 °F 88% 30.06 in 10.0 mi Calm Calm - N/A   Clear
1:35 AM 68.0 °F - 64.4 °F 88% 30.05 in 10.0 mi SSE 4.6 mph - N/A   Clear
1:58 AM 66.2 °F - 64.4 °F 94% 30.04 in 10.0 mi SE 3.5 mph - N/A   Clear
2:16 AM 66.2 °F - 64.4 °F 94% 30.05 in 10.0 mi Calm Calm - N/A   Clear
2:35 AM 66.2 °F - 64.4 °F 94% 30.05 in 10.0 mi SSW 4.6 mph - N/A   Clear
2:36 AM 66.2 °F - 64.4 °F 94% 30.05 in 10.0 mi SSW 4.6 mph - N/A   Clear
2:55 AM 66.2 °F - 64.4 °F 94% 30.05 in 10.0 mi South 3.5 mph - N/A   Clear
2:56 AM 66.2 °F - 64.4 °F 94% 30.05 in 10.0 mi South 3.5 mph - N/A   Clear
3:15 AM 66.2 °F - 64.4 °F 94% 30.05 in 10.0 mi South 3.5 mph - N/A   Clear
3:20 AM 66.2 °F - 64.4 °F 94% 30.05 in 10.0 mi South 3.5 mph - N/A   Clear
3:37 AM 66.2 °F - 64.4 °F 94% 30.06 in 10.0 mi Calm Calm - N/A   Scattered Clouds
3:55 AM 68.0 °F - 66.2 °F 94% 30.06 in 10.0 mi Calm Calm - N/A   Mostly Cloudy
4:15 AM 68.0 °F - 66.2 °F 94% 30.06 in 10.0 mi Calm Calm - N/A   Overcast
4:35 AM 68.0 °F - 66.2 °F 94% 30.05 in 10.0 mi Calm Calm - N/A   Overcast
4:36 AM 68.0 °F - 66.2 °F 94% 30.05 in 10.0 mi Calm Calm - N/A   Overcast
4:59 AM 68.0 °F - 66.2 °F 94% 30.05 in 10.0 mi Calm Calm - N/A   Overcast
5:17 AM 69.8 °F - 66.2 °F 88% 30.05 in 10.0 mi Calm Calm - N/A   Overcast
5:36 AM 69.8 °F - 66.2 °F 88% 30.04 in 10.0 mi SE 3.5 mph - N/A   Overcast
5:55 AM 69.8 °F - 66.2 °F 88% 30.04 in 10.0 mi SSE 3.5 mph - N/A   Mostly Cloudy
5:56 AM 69.8 °F - 66.2 °F 88% 30.04 in 10.0 mi SSE 3.5 mph - N/A   Mostly Cloudy
6:15 AM 68.0 °F - 66.2 °F 94% 30.04 in 10.0 mi SE 4.6 mph - N/A   Mostly Cloudy
6:19 AM 68.0 °F - 66.2 °F 94% 30.04 in 10.0 mi SE 4.6 mph - N/A   Scattered Clouds
6:37 AM 68.0 °F - 66.2 °F 94% 30.04 in 10.0 mi SE 3.5 mph - N/A   Scattered Clouds
6:56 AM 69.8 °F - 66.2 °F 88% 30.04 in 10.0 mi SSE 3.5 mph - N/A   Mostly Cloudy
7:15 AM 69.8 °F - 66.2 °F 88% 30.04 in 10.0 mi SSE 3.5 mph - N/A   Overcast
7:16 AM 69.8 °F - 66.2 °F 88% 30.04 in 10.0 mi SSE 3.5 mph - N/A   Mostly Cloudy
7:35 AM 69.8 °F - 68.0 °F 94% 30.04 in 10.0 mi SSE 3.5 mph - N/A   Mostly Cloudy
7:36 AM 69.8 °F - 68.0 °F 94% 30.04 in 10.0 mi SSE 3.5 mph - N/A   Mostly Cloudy
7:58 AM 73.4 °F - 69.8 °F 88% 30.03 in 10.0 mi South 4.6 mph - N/A   Mostly Cloudy
8:16 AM 73.4 °F - 69.8 °F 88% 30.03 in 10.0 mi SSW 4.6 mph - N/A   Scattered Clouds
8:36 AM 75.2 °F - 69.8 °F 83% 30.03 in 10.0 mi SSE 3.5 mph - N/A   Scattered Clouds
8:55 AM 75.2 °F - 69.8 °F 83% 30.02 in 10.0 mi SSE 4.6 mph - N/A   Clear
8:56 AM 75.2 °F - 69.8 °F 83% 30.02 in 10.0 mi SSE 5.8 mph - N/A   Clear
9:15 AM 77.0 °F - 69.8 °F 78% 30.02 in 10.0 mi SSE 6.9 mph - N/A   Clear
9:19 AM 77.0 °F - 69.8 °F 78% 30.02 in 10.0 mi SSE 6.9 mph - N/A   Clear
9:38 AM 78.8 °F - 69.8 °F 74% 30.01 in 10.0 mi SSE 6.9 mph - N/A   Clear
9:55 AM 80.6 °F 83.9 °F 69.8 °F 70% 30.02 in 10.0 mi South 6.9 mph - N/A   Clear
10:15 AM 80.6 °F 83.9 °F 69.8 °F 70% 30.02 in 10.0 mi South 6.9 mph - N/A   Clear
10:16 AM 80.6 °F 83.9 °F 69.8 °F 70% 30.02 in 10.0 mi South 8.1 mph - N/A   Clear
10:35 AM 82.4 °F 86.3 °F 69.8 °F 66% 30.02 in 10.0 mi South 8.1 mph - N/A   Clear
10:58 AM 82.4 °F 87.2 °F 71.6 °F 70% 30.01 in 10.0 mi South 8.1 mph - N/A   Clear
11:16 AM 84.2 °F 89.6 °F 71.6 °F 66% 30.01 in 10.0 mi SSW 8.1 mph - N/A   Clear
11:35 AM 84.2 °F 88.4 °F 69.8 °F 62% 30.02 in 10.0 mi SSW 3.5 mph - N/A   Clear
11:55 AM 84.2 °F 89.6 °F 71.6 °F 66% 30.01 in 10.0 mi SSW 4.6 mph - N/A   Scattered Clouds
11:56 AM 84.2 °F 89.6 °F 71.6 °F 66% 30.01 in 10.0 mi SSW 5.8 mph - N/A   Scattered Clouds
12:15 PM 84.2 °F 89.6 °F 71.6 °F 66% 30.01 in 10.0 mi Calm Calm - N/A   Scattered Clouds
12:37 PM 86.0 °F 90.4 °F 69.8 °F 58% 30.00 in 10.0 mi South 5.8 mph - N/A   Scattered Clouds
12:55 PM 84.2 °F 88.4 °F 69.8 °F 62% 30.00 in 10.0 mi South 6.9 mph - N/A   Mostly Cloudy
1:15 PM 87.8 °F 92.6 °F 69.8 °F 55% 29.99 in 10.0 mi South 5.8 mph - N/A   Scattered Clouds
1:16 PM 87.8 °F 92.6 °F 69.8 °F 55% 29.99 in 10.0 mi South 6.9 mph - N/A   Scattered Clouds
1:35 PM 87.8 °F 92.6 °F 69.8 °F 55% 29.99 in 10.0 mi SSW 4.6 mph - N/A   Scattered Clouds
1:36 PM 87.8 °F 92.6 °F 69.8 °F 55% 29.99 in 10.0 mi SSW 3.5 mph - N/A   Scattered Clouds
1:59 PM 87.8 °F 93.8 °F 71.6 °F 58% 29.99 in 10.0 mi SW 5.8 mph - N/A   Scattered Clouds
2:17 PM 86.0 °F 90.4 °F 69.8 °F 58% 30.00 in 10.0 mi SW 4.6 mph - N/A   Scattered Clouds
2:36 PM 86.0 °F 91.8 °F 71.6 °F 62% 30.00 in 10.0 mi SW 3.5 mph - N/A   Scattered Clouds
2:55 PM 87.8 °F 93.8 °F 71.6 °F 58% 29.99 in 10.0 mi SSW 4.6 mph - N/A   Scattered Clouds
2:56 PM 87.8 °F 93.8 °F 71.6 °F 58% 29.99 in 10.0 mi SSW 4.6 mph - N/A   Scattered Clouds
3:15 PM 87.8 °F 92.6 °F 69.8 °F 55% 29.99 in 10.0 mi West 3.5 mph - N/A   Mostly Cloudy
3:19 PM 87.8 °F 93.8 °F 71.6 °F 58% 29.99 in 10.0 mi West 3.5 mph - N/A   Mostly Cloudy
3:37 PM 87.8 °F 93.8 °F 71.6 °F 58% 29.99 in 10.0 mi West 3.5 mph - N/A   Mostly Cloudy
3:56 PM 87.8 °F 95.6 °F 73.4 °F 62% 29.99 in 10.0 mi West 4.6 mph - N/A   Scattered Clouds
4:15 PM 86.0 °F 91.8 °F 71.6 °F 62% 29.99 in 10.0 mi West 5.8 mph - N/A   Scattered Clouds
4:16 PM 86.0 °F 91.8 °F 71.6 °F 62% 29.99 in 10.0 mi West 4.6 mph - N/A   Scattered Clouds
4:35 PM 87.8 °F 93.8 °F 71.6 °F 58% 29.98 in 10.0 mi West 3.5 mph - N/A   Clear
4:58 PM 87.8 °F 93.8 °F 71.6 °F 58% 29.97 in 10.0 mi WNW 6.9 mph - N/A   Clear
5:16 PM 87.8 °F 93.8 °F 71.6 °F 58% 29.96 in 10.0 mi WNW 6.9 mph - N/A   Scattered Clouds
5:35 PM 87.8 °F 95.6 °F 73.4 °F 62% 29.97 in 10.0 mi NNW 10.4 mph - N/A   Clear
5:36 PM 87.8 °F 95.6 °F 73.4 °F 62% 29.97 in 10.0 mi NNW 10.4 mph - N/A   Clear
5:55 PM 86.0 °F 93.4 °F 73.4 °F 66% 29.96 in 10.0 mi NNW 8.1 mph - N/A   Clear
6:15 PM 86.0 °F 91.8 °F 71.6 °F 62% 29.95 in 10.0 mi NNW 4.6 mph - N/A   Clear
6:19 PM 86.0 °F 91.8 °F 71.6 °F 62% 29.95 in 10.0 mi North 3.5 mph - N/A   Clear
6:38 PM 86.0 °F 91.8 °F 71.6 °F 62% 29.95 in 10.0 mi NNW 5.8 mph - N/A   Clear
6:55 PM 84.2 °F 89.6 °F 71.6 °F 66% 29.95 in 10.0 mi NNW 5.8 mph - N/A   Clear
7:15 PM 84.2 °F 89.6 °F 71.6 °F 66% 29.94 in 10.0 mi NNE 4.6 mph - N/A   Clear
7:16 PM 84.2 °F 89.6 °F 71.6 °F 66% 29.94 in 10.0 mi NNE 4.6 mph - N/A   Clear
7:35 PM 84.2 °F 90.9 °F 73.4 °F 70% 29.94 in 10.0 mi NE 3.5 mph - N/A   Clear
7:58 PM 82.4 °F 88.2 °F 73.4 °F 74% 29.93 in 10.0 mi Calm Calm - N/A   Clear
8:17 PM 80.6 °F 85.4 °F 73.4 °F 79% 29.92 in 10.0 mi East 4.6 mph - N/A   Clear
8:36 PM 78.8 °F - 73.4 °F 83% 29.93 in 10.0 mi East 3.5 mph - N/A   Clear
8:55 PM 78.8 °F - 73.4 °F 83% 29.93 in 10.0 mi Calm Calm - N/A   Clear
8:56 PM 78.8 °F - 73.4 °F 83% 29.93 in 10.0 mi Calm Calm - N/A   Clear
9:15 PM 78.8 °F - 73.4 °F 83% 29.94 in 10.0 mi Calm Calm - N/A   Clear
9:37 PM 75.2 °F - 73.4 °F 94% 29.94 in 10.0 mi Calm Calm - N/A   Clear
9:55 PM 75.2 °F - 73.4 °F 94% 29.95 in 10.0 mi Calm Calm - N/A   Clear
10:35 PM 73.4 °F - 71.6 °F 94% 29.96 in 10.0 mi West 3.5 mph - N/A   Clear
10:36 PM 73.4 °F - 71.6 °F 94% 29.96 in 10.0 mi West 3.5 mph - N/A   Clear
10:59 PM 73.4 °F - 71.6 °F 94% 29.96 in 10.0 mi Calm Calm - N/A   Clear
11:16 PM 73.4 °F - 71.6 °F 94% 29.95 in 10.0 mi Calm Calm - N/A   Clear
11:36 PM 73.4 °F - 71.6 °F 94% 29.95 in 10.0 mi Calm Calm - N/A   Clear
11:55 PM 73.4 °F - 71.6 °F 94% 29.95 in 10.0 mi Calm Calm - N/A   Clear
11:56 PM 73.4 °F - 71.6 °F 94% 29.95 in 10.0 mi Calm Calm - N/A   Clear